LILACSAT-2 (40908 NORAD) Tracking and Keplerian Element Data

This shows tracking and keplerian element data for the satellite.

Feedback or suggestion? Click here.




ElementValue
Catalog40908
NameLILACSAT-2
Epoch Orbit39624
Epoch Day325.22297745
Epoch Year2022
RAAN324.405
Inclination97.5231
Eccentricity0.0014488
Argument of Perigee186.4705
Mean Anonmoly230.2888
Mean Motion15.16826691
Decay Rate2.919E-05
L11 40908U 15049K 22325.22297745 .00002919 00000+0 15156-3 0 9993
L22 40908 97.5231 324.4050 0014488 186.4705 230.2888 15.16826691396244



Live tracking and technical data element details for LILACSAT-2 (NORAD 40908). LILACSAT-2 can be tracked NOW for your location showing map with azimuth and elevation plus other details from your city location.







IsCatalogInMostPopularTable: catalog: 40908, numindb: 458
Update: records affected: 1



GetName: 40908 LILACSAT-2

Hit Count: updated at: Mon, 28 Nov 2022 05:54:20 GMT